| time (UTC) | temp F | wind direction | speed knots | gust knots | rain 1hr in | rain 24hr in | rain mn in | humidity % | barometer mb |
| 20260506222708 | 66 | 195 | 3.5 | 9.6 | 0.00 | 0.00 | 0.00 | 74 | 1019.5 |
| 20260506222203 | 66 | 225 | 1.7 | 15.6 | 0.00 | 0.00 | 0.00 | 72 | 1019.5 |
| 20260506221701 | 66 | 253 | 8.7 | 9.6 | 0.00 | 0.00 | 0.00 | 72 | 1019.6 |
| 20260506221159 | 68 | 213 | 2.6 | 8.7 | 0.00 | 0.00 | 0.00 | 71 | 1019.5 |
| 20260506220656 | 67 | 65 | 0.0 | 12.2 | 0.00 | 0.00 | 0.00 | 71 | 1019.7 |
| 20260506220150 | 67 | 179 | 3.5 | 9.6 | 0.00 | 0.00 | 0.00 | 70 | 1020.0 |
| 20260506215648 | 67 | 238 | 4.3 | 8.7 | 0.00 | 0.00 | 0.00 | 70 | 1020.0 |
| 20260506215143 | 68 | 254 | 3.5 | 10.4 | 0.00 | 0.00 | 0.00 | 69 | 1020.0 |
| 20260506214640 | 68 | 291 | 2.6 | 10.4 | 0.00 | 0.00 | 0.00 | 67 | 1020.0 |
| 20260506214137 | 68 | 238 | 1.7 | 7.8 | 0.00 | 0.00 | 0.00 | 70 | 1019.9 |
| 20260506213636 | 67 | 279 | 2.6 | 9.6 | 0.00 | 0.00 | 0.00 | 70 | 1020.0 |
| 20260506213132 | 67 | 249 | 5.2 | 9.6 | 0.00 | 0.00 | 0.00 | 70 | 1020.0 |
| 20260506212630 | 67 | 204 | 4.3 | 9.6 | 0.00 | 0.00 | 0.00 | 69 | 1020.1 |
| 20260506212124 | 68 | 289 | 4.3 | 9.6 | 0.00 | 0.00 | 0.00 | 68 | 1020.2 |
| 20260506211620 | 67 | 256 | 6.1 | 8.7 | 0.00 | 0.00 | 0.00 | 69 | 1020.1 |
| 20260506211117 | 68 | 170 | 2.6 | 9.6 | 0.00 | 0.00 | 0.00 | 69 | 1020.0 |
| 20260506210614 | 67 | 288 | 5.2 | 8.7 | 0.00 | 0.00 | 0.00 | 70 | 1020.2 |
| 20260506210110 | 67 | 287 | 3.5 | 7.0 | 0.00 | 0.00 | 0.00 | 71 | 1020.1 |
| 20260506205608 | 67 | 222 | 4.3 | 11.3 | 0.00 | 0.00 | 0.00 | 70 | 1020.2 |
| 20260506205103 | 67 | 285 | 4.3 | 7.8 | 0.00 | 0.00 | 0.00 | 69 | 1020.2 |
| 20260506204601 | 67 | 220 | 1.7 | 8.7 | 0.00 | 0.00 | 0.00 | 70 | 1020.3 |
| 20260506204058 | 66 | 43 | 1.7 | 10.4 | 0.00 | 0.00 | 0.00 | 72 | 1020.3 |
| 20260506203556 | 67 | 289 | 2.6 | 11.3 | 0.00 | 0.00 | 0.00 | 70 | 1020.0 |
| 20260506203052 | 67 | 222 | 2.6 | 10.4 | 0.00 | 0.00 | 0.00 | 70 | 1020.1 |
| 20260506202550 | 68 | 170 | 1.7 | 12.2 | 0.00 | 0.00 | 0.00 | 69 | 1020.2 |
| 20260506202046 | 68 | 295 | 1.7 | 7.8 | 0.00 | 0.00 | 0.00 | 69 | 1020.1 |
| 20260506201544 | 68 | 194 | 2.6 | 7.0 | 0.00 | 0.00 | 0.00 | 69 | 1020.2 |
| 20260506201040 | 68 | 244 | 4.3 | 10.4 | 0.00 | 0.00 | 0.00 | 69 | 1020.5 |
| 20260506200536 | 69 | 204 | 4.3 | 6.1 | 0.00 | 0.00 | 0.00 | 68 | 1020.2 |
| 20260506200033 | 68 | 266 | 2.6 | 8.7 | 0.00 | 0.00 | 0.00 | 68 | 1020.2 |
| 20260506195530 | 67 | 272 | 1.7 | 10.4 | 0.00 | 0.00 | 0.00 | 70 | 1020.3 |
| 20260506195026 | 67 | 252 | 6.1 | 8.7 | 0.00 | 0.00 | 0.00 | 69 | 1020.4 |
| 20260506194524 | 68 | 208 | 1.7 | 7.8 | 0.00 | 0.00 | 0.00 | 69 | 1020.5 |
| 20260506194020 | 68 | 282 | 5.2 | 8.7 | 0.00 | 0.00 | 0.00 | 68 | 1020.4 |
| 20260506193518 | 68 | 316 | 2.6 | 7.0 | 0.00 | 0.00 | 0.00 | 68 | 1020.7 |
| 20260506193015 | 68 | 256 | 0.9 | 9.6 | 0.00 | 0.00 | 0.00 | 69 | 1020.5 |
| 20260506192511 | 69 | 272 | 3.5 | 6.1 | 0.00 | 0.00 | 0.00 | 68 | 1020.5 |
| 20260506192007 | 69 | 321 | 4.3 | 8.7 | 0.00 | 0.00 | 0.00 | 67 | 1020.6 |
| 20260506191504 | 70 | 272 | 1.7 | 7.8 | 0.00 | 0.00 | 0.00 | 66 | 1020.7 |
| 20260506191001 | 70 | 294 | 2.6 | 7.8 | 0.00 | 0.00 | 0.00 | 67 | 1020.8 |
| 20260506190458 | 69 | 278 | 4.3 | 7.8 | 0.00 | 0.00 | 0.00 | 67 | 1020.7 |
| 20260506185954 | 70 | 8 | 1.7 | 9.6 | 0.00 | 0.00 | 0.00 | 66 | 1020.9 |
| 20260506185451 | 70 | 330 | 0.9 | 7.0 | 0.00 | 0.00 | 0.00 | 67 | 1020.9 |
| 20260506184942 | 70 | 277 | 1.7 | 7.0 | 0.00 | 0.00 | 0.00 | 66 | 1020.8 |
| 20260506184439 | 71 | 18 | 1.7 | 5.2 | 0.00 | 0.00 | 0.00 | 65 | 1020.7 |
| 20260506183937 | 72 | 288 | 0.0 | 3.5 | 0.00 | 0.00 | 0.00 | 65 | 1020.8 |
| 20260506183432 | 70 | 33 | 0.9 | 4.3 | 0.00 | 0.00 | 0.00 | 67 | 1020.9 |
| 20260506182929 | 71 | 341 | 0.0 | 5.2 | 0.00 | 0.00 | 0.00 | 66 | 1020.8 |
| 20260506182426 | 70 | 203 | 0.9 | 6.1 | 0.00 | 0.00 | 0.00 | 67 | 1020.7 |
| 20260506181924 | 71 | 329 | 1.7 | 6.1 | 0.00 | 0.00 | 0.00 | 65 | 1020.9 |
| 20260506181422 | 71 | 76 | 0.0 | 2.6 | 0.00 | 0.00 | 0.00 | 61 | 1021.0 |
| 20260506180918 | 71 | 67 | 4.3 | 4.3 | 0.00 | 0.00 | 0.00 | 60 | 1020.7 |
| 20260506180414 | 72 | 106 | 0.9 | 4.3 | 0.00 | 0.00 | 0.00 | 60 | 1020.6 |
| 20260506175911 | 72 | 345 | 0.0 | 3.5 | 0.00 | 0.00 | 0.00 | 59 | 1020.9 |
| 20260506175408 | 72 | 355 | 0.0 | 2.6 | 0.00 | 0.00 | 0.00 | 61 | 1020.8 |
| 20260506174905 | 73 | 295 | 1.7 | 4.3 | 0.00 | 0.00 | 0.00 | 59 | 1020.7 |
| 20260506174403 | 71 | 44 | 0.0 | 1.7 | 0.00 | 0.00 | 0.00 | 63 | 1020.9 |
| 20260506173900 | 71 | 311 | 0.9 | 4.3 | 0.00 | 0.00 | 0.00 | 62 | 1020.7 |
| 20260506173356 | 71 | 333 | 0.9 | 2.6 | 0.00 | 0.00 | 0.00 | 61 | 1021.0 |
| 20260506172854 | 71 | 33 | 1.7 | 5.2 | 0.00 | 0.00 | 0.00 | 62 | 1020.7 |
| 20260506172350 | 72 | 135 | 2.6 | 3.5 | 0.00 | 0.00 | 0.00 | 61 | 1020.8 |
| 20260506171848 | 71 | 6 | 1.7 | 3.5 | 0.00 | 0.00 | 0.00 | 63 | 1020.8 |
| 20260506171344 | 69 | 89 | 0.0 | 3.5 | 0.00 | 0.00 | 0.00 | 66 | 1020.8 |
| 20260506170842 | 69 | 6 | 1.7 | 4.3 | 0.00 | 0.00 | 0.00 | 64 | 1021.1 |
| 20260506170337 | 70 | 344 | 1.7 | 3.5 | 0.00 | 0.00 | 0.00 | 65 | 1020.9 |
| 20260506165831 | 69 | 52 | 0.0 | 3.5 | 0.00 | 0.00 | 0.00 | 66 | 1020.9 |
| 20260506165328 | 69 | 42 | 2.6 | 3.5 | 0.00 | 0.00 | 0.00 | 68 | 1021.3 |
| 20260506164819 | 68 | 55 | 0.0 | 3.5 | 0.00 | 0.00 | 0.00 | 69 | 1021.2 |
| 20260506164316 | 67 | 300 | 1.7 | 4.3 | 0.00 | 0.00 | 0.00 | 70 | 1021.2 |
| 20260506163813 | 67 | 264 | 0.0 | 2.6 | 0.00 | 0.00 | 0.00 | 68 | 1021.2 |
| 20260506163308 | 67 | 40 | 2.6 | 6.1 | 0.00 | 0.00 | 0.00 | 68 | 1021.1 |
| 20260506162803 | 68 | 101 | 1.7 | 3.5 | 0.00 | 0.00 | 0.00 | 67 | 1021.3 |
| 20260506162301 | 67 | 247 | 0.0 | 4.3 | 0.00 | 0.00 | 0.00 | 69 | 1021.1 |
| 20260506161758 | 68 | 24 | 0.0 | 2.6 | 0.00 | 0.00 | 0.00 | 68 | 1021.1 |
| 20260506161256 | 68 | 95 | 1.7 | 3.5 | 0.00 | 0.00 | 0.00 | 69 | 1021.1 |
| 20260506160748 | 67 | 76 | 0.0 | 5.2 | 0.00 | 0.00 | 0.00 | 70 | 1021.2 |
| 20260506160244 | 67 | 10 | 1.7 | 3.5 | 0.00 | 0.00 | 0.00 | 69 | 1021.4 |
| 20260506155743 | 66 | 47 | 1.7 | 4.3 | 0.00 | 0.00 | 0.00 | 69 | 1021.2 |
| 20260506155240 | 67 | 51 | 1.7 | 4.3 | 0.00 | 0.00 | 0.00 | 69 | 1021.1 |
| 20260506153352 | 67 | 53 | 2.6 | 3.5 | 0.00 | 0.00 | 0.00 | 69 | 1021.1 |
| 20260506152849 | 66 | 22 | 0.0 | 2.6 | 0.00 | 0.00 | 0.00 | 71 | 1021.3 |
| 20260506152346 | 66 | 9 | 0.0 | 4.3 | 0.00 | 0.00 | 0.00 | 71 | 1021.3 |
| 20260506151845 | 66 | 45 | 1.7 | 3.5 | 0.00 | 0.00 | 0.00 | 71 | 1021.4 |
| 20260506151341 | 66 | 65 | 1.7 | 2.6 | 0.00 | 0.00 | 0.00 | 71 | 1021.4 |
| 20260506150839 | 66 | 32 | 0.0 | 2.6 | 0.00 | 0.00 | 0.00 | 72 | 1021.3 |
| 20260506150335 | 65 | 342 | 0.0 | 4.3 | 0.00 | 0.00 | 0.00 | 73 | 1021.6 |
| 20260506145832 | 65 | 147 | 0.0 | 4.3 | 0.00 | 0.00 | 0.00 | 72 | 1021.4 |
| 20260506145328 | 64 | 50 | 0.0 | 2.6 | 0.00 | 0.00 | 0.00 | 75 | 1021.3 |
| 20260506144826 | 64 | 110 | 0.9 | 2.6 | 0.00 | 0.00 | 0.00 | 74 | 1021.2 |
| 20260506144322 | 66 | 57 | 2.6 | 2.6 | 0.00 | 0.00 | 0.00 | 73 | 1021.5 |
| 20260506143821 | 64 | 83 | 0.9 | 2.6 | 0.00 | 0.00 | 0.00 | 77 | 1021.2 |
| 20260506143317 | 63 | 131 | 0.9 | 2.6 | 0.00 | 0.00 | 0.00 | 77 | 1021.5 |
| 20260506142816 | 61 | 199 | 0.0 | 2.6 | 0.00 | 0.00 | 0.00 | 81 | 1021.5 |
| 20260506142313 | 60 | 301 | 0.9 | 2.6 | 0.00 | 0.00 | 0.00 | 91 | 1021.2 |
| 20260506141812 | 58 | 348 | 0.0 | 1.7 | 0.00 | 0.00 | 0.00 | 93 | 1021.5 |
| 20260506141309 | 55 | 28 | 0.0 | 1.7 | 0.00 | 0.00 | 0.00 | 93 | 1021.2 |
| 20260506140807 | 54 | 69 | 0.0 | 1.7 | 0.00 | 0.00 | 0.00 | 93 | 1021.3 |
| 20260506140303 | 54 | 168 | 0.0 | 1.7 | 0.00 | 0.00 | 0.00 | 93 | 1021.2 |
| 20260506135801 | 54 | 262 | 0.0 | 1.7 | 0.00 | 0.00 | 0.00 | 93 | 1021.1 |
| 20260506135257 | 54 | 60 | 0.0 | 1.7 | 0.00 | 0.00 | 0.00 | 94 | 1020.9 |
| 20260506134754 | 53 | 60 | 0.0 | 1.7 | 0.00 | 0.00 | 0.00 | 94 | 1020.8 |
| 20260506134250 | 53 | 125 | 0.0 | 1.7 | 0.00 | 0.00 | 0.00 | 94 | 1020.7 |
| 20260506133747 | 53 | 41 | 0.0 | 2.6 | 0.00 | 0.00 | 0.00 | 94 | 1021.0 |
| 20260506133244 | 53 | 283 | 0.0 | 2.6 | 0.00 | 0.00 | 0.00 | 94 | 1020.8 |
| 20260506132741 | 53 | 287 | 0.0 | 1.7 | 0.00 | 0.00 | 0.00 | 94 | 1020.9 |
| 20260506132238 | 53 | 93 | 0.0 | 2.6 | 0.00 | 0.00 | 0.00 | 94 | 1020.7 |
| 20260506131736 | 53 | 167 | 0.0 | 1.7 | 0.00 | 0.00 | 0.00 | 94 | 1020.6 |
| 20260506131232 | 53 | 320 | 0.0 | 1.7 | 0.00 | 0.00 | 0.00 | 94 | 1020.5 |
| 20260506130729 | 53 | 290 | 0.0 | 2.6 | 0.00 | 0.00 | 0.00 | 94 | 1020.7 |
| 20260506130226 | 53 | 105 | 0.0 | 1.7 | 0.00 | 0.00 | 0.00 | 94 | 1020.5 |
| 20260506125724 | 54 | 20 | 0.0 | 2.6 | 0.00 | 0.00 | 0.00 | 94 | 1020.4 |
| 20260506125221 | 54 | 292 | 0.9 | 1.7 | 0.00 | 0.00 | 0.00 | 94 | 1020.4 |
| 20260506124719 | 54 | 315 | 0.0 | 1.7 | 0.00 | 0.00 | 0.00 | 94 | 1020.4 |
| 20260506124217 | 54 | 25 | 0.9 | 1.7 | 0.00 | 0.00 | 0.00 | 93 | 1020.4 |
| 20260506123714 | 54 | 228 | 0.0 | 2.6 | 0.00 | 0.00 | 0.00 | 93 | 1020.2 |
| 20260506123213 | 54 | 198 | 0.9 | 1.7 | 0.00 | 0.00 | 0.00 | 94 | 1020.3 |
| 20260506122709 | 54 | 180 | 0.0 | 3.5 | 0.00 | 0.00 | 0.00 | 94 | 1020.3 |
| 20260506122207 | 54 | 220 | 2.6 | 3.5 | 0.00 | 0.00 | 0.00 | 94 | 1020.2 |
| 20260506121704 | 54 | 203 | 1.7 | 3.5 | 0.00 | 0.00 | 0.00 | 94 | 1020.1 |
| 20260506121201 | 54 | 215 | 2.6 | 4.3 | 0.00 | 0.00 | 0.00 | 94 | 1020.1 |
| 20260506120659 | 54 | 210 | 1.7 | 3.5 | 0.00 | 0.00 | 0.00 | 94 | 1020.0 |
| 20260506120156 | 54 | 218 | 2.6 | 4.3 | 0.00 | 0.00 | 0.00 | 94 | 1020.0 |
| 20260506115654 | 54 | 215 | 1.7 | 3.5 | 0.00 | 0.00 | 0.00 | 94 | 1020.2 |
| 20260506115152 | 54 | 210 | 0.0 | 3.5 | 0.00 | 0.00 | 0.00 | 95 | 1020.1 |
| 20260506114649 | 53 | 177 | 1.7 | 3.5 | 0.00 | 0.00 | 0.00 | 95 | 1019.9 |
| 20260506114147 | 53 | 233 | 2.6 | 4.3 | 0.00 | 0.00 | 0.00 | 95 | 1020.2 |
| 20260506113645 | 53 | 215 | 3.5 | 6.1 | 0.00 | 0.00 | 0.00 | 95 | 1019.9 |
| 20260506113142 | 53 | 187 | 2.6 | 4.3 | 0.00 | 0.00 | 0.00 | 95 | 1020.0 |
| 20260506112638 | 53 | 202 | 3.5 | 4.3 | 0.00 | 0.00 | 0.00 | 95 | 1020.0 |
| 20260506112136 | 53 | 196 | 1.7 | 2.6 | 0.00 | 0.00 | 0.00 | 95 | 1020.0 |
| 20260506111633 | 53 | 224 | 0.0 | 3.5 | 0.00 | 0.00 | 0.00 | 95 | 1020.0 |
| 20260506111131 | 53 | 241 | 0.0 | 3.5 | 0.00 | 0.00 | 0.00 | 95 | 1019.9 |
| 20260506110628 | 53 | 226 | 1.7 | 3.5 | 0.00 | 0.00 | 0.00 | 95 | 1019.8 |
| 20260506110125 | 53 | 220 | 0.9 | 5.2 | 0.00 | 0.00 | 0.00 | 95 | 1019.9 |
| 20260506105622 | 53 | 181 | 0.0 | 3.5 | 0.00 | 0.00 | 0.00 | 95 | 1019.9 |
| 20260506105119 | 53 | 237 | 2.6 | 4.3 | 0.00 | 0.00 | 0.00 | 95 | 1019.8 |
| 20260506104617 | 53 | 162 | 0.9 | 3.5 | 0.00 | 0.00 | 0.00 | 95 | 1019.8 |
| 20260506104114 | 53 | 235 | 0.0 | 3.5 | 0.00 | 0.00 | 0.00 | 95 | 1019.9 |
| 20260506103611 | 53 | 245 | 0.9 | 3.5 | 0.00 | 0.00 | 0.00 | 95 | 1019.9 |
| 20260506103108 | 53 | 237 | 0.9 | 2.6 | 0.00 | 0.00 | 0.00 | 96 | 1019.9 |
| 20260506102606 | 53 | 189 | 1.7 | 3.5 | 0.00 | 0.00 | 0.00 | 96 | 1019.8 |
| 20260506102104 | 53 | 200 | 2.6 | 3.5 | 0.00 | 0.00 | 0.00 | 96 | 1019.9 |
| 20260506101600 | 53 | 159 | 0.0 | 2.6 | 0.00 | 0.00 | 0.00 | 96 | 1019.9 |
| 20260506101057 | 53 | 251 | 0.9 | 3.5 | 0.00 | 0.00 | 0.00 | 96 | 1019.8 |
| 20260506100555 | 53 | 211 | 0.9 | 3.5 | 0.00 | 0.00 | 0.00 | 96 | 1019.8 |
| 20260506100053 | 53 | 246 | 0.0 | 3.5 | 0.00 | 0.00 | 0.00 | 96 | 1019.9 |
| 20260506095552 | 53 | 210 | 2.6 | 4.3 | 0.00 | 0.00 | 0.00 | 96 | 1020.0 |
| 20260506095048 | 53 | 204 | 0.9 | 4.3 | 0.00 | 0.00 | 0.00 | 95 | 1020.0 |
| 20260506094545 | 53 | 209 | 1.7 | 3.5 | 0.00 | 0.00 | 0.00 | 95 | 1020.0 |
| 20260506094043 | 54 | 214 | 1.7 | 5.2 | 0.00 | 0.00 | 0.00 | 95 | 1020.0 |
| 20260506093541 | 54 | 210 | 2.6 | 4.3 | 0.00 | 0.00 | 0.00 | 95 | 1020.1 |
| 20260506093038 | 54 | 180 | 1.7 | 5.2 | 0.00 | 0.00 | 0.00 | 95 | 1020.2 |
| 20260506092536 | 54 | 229 | 1.7 | 4.3 | 0.00 | 0.00 | 0.00 | 94 | 1020.1 |
| 20260506092033 | 54 | 214 | 2.6 | 4.3 | 0.00 | 0.00 | 0.00 | 94 | 1019.9 |
| 20260506091531 | 55 | 216 | 2.6 | 5.2 | 0.00 | 0.00 | 0.00 | 94 | 1020.0 |
| 20260506091028 | 55 | 229 | 2.6 | 3.5 | 0.00 | 0.00 | 0.00 | 94 | 1019.9 |
| 20260506090526 | 55 | 192 | 0.9 | 4.3 | 0.00 | 0.00 | 0.00 | 94 | 1020.0 |
| 20260506090022 | 55 | 229 | 1.7 | 4.3 | 0.00 | 0.00 | 0.00 | 94 | 1020.0 |
| 20260506085519 | 55 | 221 | 2.6 | 5.2 | 0.00 | 0.00 | 0.00 | 93 | 1020.1 |
| 20260506085015 | 55 | 106 | 0.0 | 2.6 | 0.00 | 0.00 | 0.00 | 93 | 1019.9 |
| 20260506084512 | 55 | 202 | 1.7 | 3.5 | 0.00 | 0.00 | 0.00 | 94 | 1020.2 |
| 20260506084008 | 55 | 243 | 1.7 | 3.5 | 0.00 | 0.00 | 0.00 | 94 | 1020.1 |
| 20260506083506 | 55 | 198 | 1.7 | 4.3 | 0.00 | 0.00 | 0.00 | 94 | 1019.7 |
| 20260506083003 | 55 | 212 | 1.7 | 4.3 | 0.00 | 0.00 | 0.00 | 94 | 1019.9 |
| 20260506082500 | 55 | 214 | 2.6 | 5.2 | 0.00 | 0.00 | 0.00 | 94 | 1019.8 |
| 20260506081955 | 55 | 220 | 2.6 | 5.2 | 0.00 | 0.00 | 0.00 | 94 | 1020.0 |
| 20260506081454 | 55 | 220 | 1.7 | 4.3 | 0.00 | 0.00 | 0.00 | 94 | 1019.7 |
| 20260506080951 | 55 | 216 | 0.9 | 3.5 | 0.00 | 0.00 | 0.00 | 94 | 1019.9 |
| 20260506080448 | 55 | 208 | 1.7 | 4.3 | 0.00 | 0.00 | 0.00 | 94 | 1019.8 |
| 20260506073431 | 55 | 214 | 0.9 | 4.3 | 0.00 | 0.00 | 0.00 | 93 | 1019.7 |
| 20260506072929 | 55 | 234 | 0.9 | 4.3 | 0.00 | 0.00 | 0.00 | 93 | 1019.7 |
| 20260506072426 | 55 | 214 | 2.6 | 4.3 | 0.00 | 0.00 | 0.00 | 93 | 1019.6 |
| 20260506071924 | 55 | 243 | 0.0 | 4.3 | 0.00 | 0.00 | 0.00 | 93 | 1019.5 |
| 20260506071422 | 56 | 225 | 1.7 | 4.3 | 0.00 | 0.00 | 0.00 | 92 | 1019.6 |
| 20260506070918 | 56 | 156 | 0.9 | 5.2 | 0.00 | 0.00 | 0.00 | 92 | 1019.3 |
| 20260506070415 | 56 | 243 | 2.6 | 4.3 | 0.00 | 0.00 | 0.00 | 92 | 1019.5 |
| 20260506062353 | 56 | 240 | 0.9 | 4.3 | 0.00 | 0.00 | 0.00 | 91 | 1019.2 |
| 20260506061848 | 56 | 243 | 1.7 | 6.1 | 0.00 | 0.00 | 0.00 | 90 | 1019.2 |
| 20260506061345 | 56 | 210 | 1.7 | 4.3 | 0.00 | 0.00 | 0.00 | 90 | 1019.2 |
| 20260506060843 | 56 | 222 | 1.7 | 4.3 | 0.00 | 0.00 | 0.00 | 90 | 1019.3 |
| 20260506060341 | 56 | 222 | 0.9 | 4.3 | 0.00 | 0.00 | 0.00 | 90 | 1019.2 |
| 20260506051313 | 57 | 232 | 1.7 | 4.3 | 0.00 | 0.00 | 0.00 | 88 | 1019.0 |
| 20260506050811 | 57 | 254 | 0.9 | 5.2 | 0.00 | 0.00 | 0.00 | 88 | 1019.0 |
| 20260506050308 | 57 | 233 | 0.9 | 3.5 | 0.00 | 0.00 | 0.00 | 88 | 1018.8 |
| 20260506044758 | 57 | 229 | 0.0 | 4.3 | 0.00 | 0.00 | 0.00 | 88 | 1018.8 |
| 20260506044256 | 57 | 231 | 1.7 | 3.5 | 0.00 | 0.00 | 0.00 | 88 | 1018.7 |
| 20260506043753 | 57 | 222 | 0.0 | 4.3 | 0.00 | 0.00 | 0.00 | 88 | 1018.5 |
| 20260506043250 | 57 | 252 | 1.7 | 6.1 | 0.00 | 0.00 | 0.00 | 88 | 1018.7 |
| 20260506042749 | 57 | 239 | 1.7 | 5.2 | 0.00 | 0.00 | 0.00 | 88 | 1018.7 |
| 20260506042247 | 57 | 248 | 0.9 | 4.3 | 0.00 | 0.00 | 0.00 | 87 | 1018.7 |
| 20260506041745 | 57 | 232 | 1.7 | 3.5 | 0.00 | 0.00 | 0.00 | 88 | 1018.6 |
| 20260506041242 | 57 | 236 | 0.9 | 4.3 | 0.00 | 0.00 | 0.00 | 87 | 1018.6 |
| 20260506040739 | 57 | 225 | 1.7 | 5.2 | 0.00 | 0.00 | 0.00 | 87 | 1018.7 |
| 20260506040236 | 57 | 242 | 0.0 | 4.3 | 0.00 | 0.00 | 0.00 | 88 | 1018.7 |
| 20260506035733 | 57 | 207 | 0.0 | 4.3 | 0.00 | 0.00 | 0.00 | 88 | 1018.4 |
| 20260506035230 | 57 | 269 | 0.0 | 4.3 | 0.00 | 0.00 | 0.00 | 88 | 1018.3 |
| 20260506034727 | 57 | 232 | 0.9 | 3.5 | 0.00 | 0.00 | 0.00 | 88 | 1018.3 |
| 20260506034224 | 57 | 228 | 0.9 | 3.5 | 0.00 | 0.00 | 0.00 | 88 | 1018.4 |
| 20260506033721 | 57 | 222 | 1.7 | 3.5 | 0.00 | 0.00 | 0.00 | 89 | 1018.3 |
| 20260506033218 | 57 | 222 | 2.6 | 3.5 | 0.00 | 0.00 | 0.00 | 89 | 1018.1 |
| 20260506032715 | 57 | 231 | 0.0 | 2.6 | 0.00 | 0.00 | 0.00 | 89 | 1018.3 |
| 20260506032212 | 57 | 40 | 1.7 | 3.5 | 0.00 | 0.00 | 0.00 | 89 | 1018.2 |
| 20260506031709 | 57 | 228 | 1.7 | 3.5 | 0.00 | 0.00 | 0.00 | 89 | 1018.1 |
| 20260506031206 | 57 | 212 | 0.0 | 3.5 | 0.00 | 0.00 | 0.00 | 88 | 1017.9 |
| 20260506030704 | 57 | 238 | 1.7 | 2.6 | 0.00 | 0.00 | 0.00 | 88 | 1018.0 |
| 20260506030201 | 57 | 241 | 1.7 | 2.6 | 0.00 | 0.00 | 0.00 | 88 | 1017.5 |
| 20260506025658 | 57 | 186 | 0.0 | 5.2 | 0.00 | 0.00 | 0.00 | 88 | 1017.7 |
| 20260506025154 | 57 | 231 | 1.7 | 4.3 | 0.00 | 0.00 | 0.00 | 87 | 1017.6 |
| 20260506024646 | 57 | 227 | 0.9 | 3.5 | 0.00 | 0.00 | 0.00 | 87 | 1017.6 |
| 20260506024142 | 58 | 220 | 0.0 | 3.5 | 0.00 | 0.00 | 0.00 | 87 | 1017.8 |
| 20260506023638 | 58 | 172 | 0.0 | 2.6 | 0.00 | 0.00 | 0.00 | 86 | 1017.7 |
| 20260506023136 | 58 | 236 | 0.9 | 3.5 | 0.00 | 0.00 | 0.00 | 86 | 1017.9 |
| 20260506022633 | 58 | 267 | 1.7 | 2.6 | 0.00 | 0.00 | 0.00 | 86 | 1017.9 |
| 20260506022130 | 58 | 252 | 3.5 | 4.3 | 0.00 | 0.00 | 0.00 | 85 | 1018.0 |
| 20260506021628 | 58 | 265 | 0.9 | 6.1 | 0.00 | 0.00 | 0.00 | 85 | 1017.5 |
| 20260506021125 | 59 | 283 | 0.0 | 3.5 | 0.00 | 0.00 | 0.00 | 84 | 1017.8 |
| 20260506020622 | 59 | 48 | 0.0 | 4.3 | 0.00 | 0.00 | 0.00 | 83 | 1017.6 |
| 20260506020120 | 59 | 238 | 1.7 | 8.7 | 0.00 | 0.00 | 0.00 | 82 | 1017.8 |
| 20260506015617 | 59 | 296 | 0.9 | 3.5 | 0.00 | 0.00 | 0.00 | 82 | 1017.6 |
| 20260506015114 | 59 | 221 | 1.7 | 4.3 | 0.00 | 0.00 | 0.00 | 82 | 1017.7 |
| 20260506014612 | 59 | 298 | 0.0 | 3.5 | 0.00 | 0.00 | 0.00 | 82 | 1017.6 |
| 20260506014107 | 59 | 201 | 0.9 | 4.3 | 0.00 | 0.00 | 0.00 | 81 | 1017.6 |
| 20260506013605 | 59 | 256 | 1.7 | 5.2 | 0.00 | 0.00 | 0.00 | 81 | 1017.7 |
| 20260506013102 | 59 | 268 | 0.9 | 4.3 | 0.00 | 0.00 | 0.00 | 81 | 1017.6 |
| 20260506012558 | 59 | 239 | 0.0 | 4.3 | 0.00 | 0.00 | 0.00 | 80 | 1017.3 |
| 20260506012055 | 59 | 247 | 1.7 | 4.3 | 0.00 | 0.00 | 0.00 | 80 | 1017.3 |
| 20260506011553 | 59 | 167 | 0.9 | 6.1 | 0.00 | 0.00 | 0.00 | 81 | 1017.4 |
| 20260506011048 | 60 | 298 | 2.6 | 3.5 | 0.00 | 0.00 | 0.00 | 80 | 1017.6 |
| 20260506010548 | 60 | 249 | 1.7 | 4.3 | 0.00 | 0.00 | 0.00 | 80 | 1017.5 |
| 20260506010044 | 61 | 195 | 1.7 | 2.6 | 0.00 | 0.00 | 0.00 | 79 | 1017.5 |
| 20260506005541 | 60 | 260 | 2.6 | 3.5 | 0.00 | 0.00 | 0.00 | 79 | 1017.6 |
| 20260506005037 | 60 | 263 | 2.6 | 4.3 | 0.00 | 0.00 | 0.00 | 78 | 1017.4 |
| 20260506004535 | 60 | 230 | 0.9 | 6.1 | 0.00 | 0.00 | 0.00 | 77 | 1017.6 |
| 20260506004031 | 61 | 334 | 1.7 | 6.1 | 0.00 | 0.00 | 0.00 | 77 | 1017.4 |
| 20260506003528 | 61 | 284 | 1.7 | 5.2 | 0.00 | 0.00 | 0.00 | 77 | 1017.3 |
| 20260506003024 | 61 | 232 | 1.7 | 6.1 | 0.00 | 0.00 | 0.00 | 76 | 1017.4 |
| 20260506002520 | 62 | 118 | 0.9 | 3.5 | 0.00 | 0.00 | 0.00 | 76 | 1017.4 |
| 20260506002016 | 62 | 154 | 0.0 | 7.8 | 0.00 | 0.00 | 0.00 | 75 | 1017.4 |
| 20260506001512 | 62 | 326 | 2.6 | 7.8 | 0.00 | 0.00 | 0.00 | 74 | 1017.3 |
| 20260506001010 | 63 | 313 | 1.7 | 7.8 | 0.00 | 0.00 | 0.00 | 73 | 1017.3 |
| 20260506000507 | 63 | 299 | 4.3 | 8.7 | 0.00 | 0.00 | 0.00 | 72 | 1017.2 |
| 20260506000004 | 63 | 260 | 2.6 | 6.1 | 0.00 | 0.00 | 0.00 | 72 | 1017.2 |
| 20260505235502 | 63 | 258 | 0.0 | 7.0 | 0.00 | 0.00 | 0.00 | 72 | 1017.1 |
| 20260505234959 | 63 | 278 | 1.7 | 6.1 | 0.00 | 0.00 | 0.00 | 72 | 1017.1 |
| 20260505234456 | 63 | 245 | 5.2 | 7.8 | 0.00 | 0.00 | 0.00 | 71 | 1017.3 |
| 20260505233953 | 64 | 299 | 4.3 | 7.0 | 0.00 | 0.00 | 0.00 | 69 | 1017.2 |
| 20260505233450 | 64 | 12 | 1.7 | 10.4 | 0.00 | 0.00 | 0.00 | 70 | 1017.1 |
| 20260505232947 | 65 | 26 | 3.5 | 7.8 | 0.00 | 0.00 | 0.00 | 68 | 1017.1 |
| 20260505232446 | 65 | 24 | 1.7 | 4.3 | 0.00 | 0.00 | 0.00 | 68 | 1017.3 |
| 20260505231942 | 66 | 307 | 1.7 | 7.8 | 0.00 | 0.00 | 0.00 | 67 | 1017.2 |
| 20260505231440 | 67 | 165 | 1.7 | 6.1 | 0.00 | 0.00 | 0.00 | 66 | 1017.2 |
| 20260505230938 | 67 | 355 | 2.6 | 6.1 | 0.00 | 0.00 | 0.00 | 66 | 1017.1 |
| 20260505230435 | 66 | 223 | 0.0 | 7.8 | 0.00 | 0.00 | 0.00 | 69 | 1017.2 |
| 20260505225931 | 65 | 346 | 1.7 | 10.4 | 0.00 | 0.00 | 0.00 | 71 | 1016.9 |
| 20260505225429 | 65 | 332 | 2.6 | 7.0 | 0.00 | 0.00 | 0.00 | 71 | 1017.2 |
| 20260505224924 | 65 | 244 | 4.3 | 8.7 | 0.00 | 0.00 | 0.00 | 70 | 1017.2 |
| 20260505224421 | 64 | 218 | 1.7 | 4.3 | 0.00 | 0.00 | 0.00 | 72 | 1017.4 |
| 20260505223918 | 64 | 38 | 0.9 | 7.0 | 0.00 | 0.00 | 0.00 | 72 | 1017.3 |
| 20260505223416 | 67 | 188 | 1.7 | 6.1 | 0.00 | 0.00 | 0.00 | 67 | 1017.4 |